Hourly Data Report for August 27, 2019

TORONTO CITY
ONTARIO
Current Station Operator: ECCC - MSC

43°40'00.000" N
79°24'00.000" W
112.50 m
6158355
71508
XTO

Download Data

Hourly Data (August 2019)
Hourly Data Report for August 27, 2019
TIME
LST
Temp Definition
°C
Dew Point Definition
°C
Rel Hum Definition
%
Precip. Amount Definition
mm

Wind Dir Definition
10's deg

Wind Spd Definition
km/h
Visibility Definition
km
Stn Press Definition
kPa
Hmdx Definition


Wind Chill Definition


Weather Definition


00:00 21.0 13.0 60 0.0       100.09     LegendNANA
01:00 20.8 12.9 61 0.0       100.05     LegendNANA
02:00 20.2 13.3 65 0.0       100.00     LegendNANA
03:00 20.1 13.7 67 0.0       99.92     LegendNANA
04:00 20.3 14.0 67 0.0       99.87     LegendNANA
05:00 20.6 14.7 69 0.0       99.86     LegendNANA
06:00 18.4 16.3 88 1.4       99.87     LegendNANA
07:00 18.5 16.7 89 0.2       99.87     LegendNANA
08:00 18.9 16.6 87 0.0       99.84     LegendNANA
09:00 19.3 16.6 84 0.0       99.81     LegendNANA
10:00 19.8 16.9 84 0.0       99.78     LegendNANA
11:00 20.4 17.4 83 0.0       99.76 26   LegendNANA
12:00 20.5 17.1 81 0.0       99.73 26   LegendNANA
13:00 19.9 17.7 87 2.7       99.70     LegendNANA
14:00 20.3 18.5 89 8.3       99.66 27   LegendNANA
15:00 20.3 18.4 89 0.0       99.64 27   LegendNANA
16:00 20.7 18.7 89 0.0       99.59 27   LegendNANA
17:00 21.1 19.0 88 0.0       99.60 28   LegendNANA
18:00 21.2 18.9 86 0.0       99.59 28   LegendNANA
19:00 21.5 18.9 85 0.0       99.60 28   LegendNANA
20:00 21.6 19.0 85 0.0       99.67 28   LegendNANA
21:00 21.8 19.0 84 0.0       99.64 29   LegendNANA
22:00 21.9 19.1 84 0.0       99.67 29   LegendNANA
23:00 21.7 19.0 85 0.0       99.64 28   LegendNANA

Notes on Data Quality.

Legend

  • E = Estimated
  • M = Missing
  • NA = Not Available*
  • [empty] = Indicates an unobserved value
Date modified: